{"data":{"norad_id":65545,"epoch":"2026-05-25T05:29:08.296800Z","epoch_age_seconds":52410,"freshness":"FRESH","line1":"1 65545U 25199B   26145.22856825  .00000102  00000+0  44933-4 0  9996","line2":"2 65545  85.9924  54.3944 0001958  96.8573 263.2833 14.12444295 36792","mean_motion":14.12444295,"eccentricity":0.0001958,"inclination_deg":85.9924,"raan_deg":54.3944,"arg_perigee_deg":96.8573,"mean_anomaly_deg":263.2833,"bstar":4.4933e-5,"rev_number":3679,"period_min":101.95092331057,"perigee_km":849.60395572757,"apogee_km":852.43489338343,"semimajor_km":7229.1564245555,"source":"CELESTRAK","updated_at":"2026-05-25T13:38:05.511597Z"}}